Find Starlink 32398

NORAD ID: 61624 Int'l Des: 2024-191 Owner: SPXS Country: US Constellation: starlink operational
LEOCIRCULAR

現在のビュー

3D地球を読み込み中...

About Starlink 32398

Starlink 32398 (NORAD 61624) is a starlink constellation satellite (v2 mini) launched Oct 23, 2024 by SPXS of US. It operates in LEO, CIRCULAR orbit with a mass of 730.00 kg.

Starlink 32398について

説明を読み込み中...

次回通過

Passes for default location (London). Set your location on the main map for personalized predictions.

高度履歴

Loading altitude history...

軌道要素

1 61624U 24191D 26169.76115838 .00000502 00000-0 27783-4 0 9997
2 61624 43.0022 303.7370 0001145 277.5217 82.5504 15.27578404 92993
Epoch: Jun 18, 2026 • Age: 13 hours

現在のステータス

高度 486.8 km
速度 7.63 km/s
衛星直下点 42.33°N, 28.06°E
打ち上げ日 Oct 23, 2024
運用期間 1.6 years
タイプ internet

技術仕様

分類 Payload
質量 730.00 kg
乾燥質量 700.00 kg
総質量 730.00 kg
長さ 0.30 m
直径 4.10 m
スパン 29.00 m
形状 Box + pan
製造者 SPXS
バスタイプ Starlink V2M
フェーズステータス In Orbit
所有者/国 SPXS/US

Most Searched